Tracking 19854 objects as of 23-Sep-2019
HD Live streaming from Space Station
objects crossing your sky now

FENGYUN 1C DEB

Track FENGYUN 1C DEB now!
10-day predictions


NORAD ID: 32192
Int'l Code: 1999-025CUN
Perigee: 832.9 km
Apogee: 1,104.8 km
Inclination: 98.6 °
Period: 104.3 minutes
Semi major axis: 7339 km
RCS: 0.0039 m2 (small)
Launch date: May 10, 1999
Source: People's Republic of China (PRC)
Launch site: Taiyaun Space Center, China (TSC)

Note: This is SATELLITE DEBRIS
aabbcc
Your satellite tracking list
Your tracking list is empty




NASA's NSSDC Master Catalog

Two Line Element Set (TLE):
1 32192U 99025CUN 19265.33426551  .00000065  00000-0  86394-4 0  9999
2 32192  98.6139 289.5726 0185275 194.2343 165.3550 13.80610756613976
Source of the keplerian elements: AFSPC